Back to catalog

CZ-6A DEB

AliveSSO
NORAD 56251·DEBRIS·🇨🇳 China

Launched Nov 11, 2022 from Taiyuan Satellite Launch Center

Loading…

Next Passes (next 24 hours)

TLE

FreshSource: Space-Track

Epoch: Sep 13, 2026, 11:33 UTC

1 56251U 22151ABT 26256.48144598  .00000258  00000-0  17686-3 0  9990
2 56251  98.8651 248.9452 0064856 126.3783 234.3393 14.06997045179011

Track CZ-6A DEB in real time with AllMySat

Download on the App Store